User: anonymous   Login
Location: Austin
(30.3000°N, 97.7500°W)
Time: 04:22:45
(UTC-05:00)
Language:

Cosmos 2333 - Orbit

View from above orbital plane
View from above orbital plane
View from above satellite
View from above satellite

Ground track
Ground track

The orbit data is extracted from the following two-line orbital elements,

1 24297U 96051A   24282.88729284  .00000183  00000-0  12196-3 0  9995
2 24297  70.9040 192.7343 0023250 164.3589 195.8256 14.13636438449195
Epoch (UTC): 08 October 2024 21:17:42
Eccentricity: 0.0023250
inclination: 70.9040°
perigee height: 830 km
apogee height: 864 km
right ascension of ascending node: 192.7343°
argument of perigee: 164.3589°
revolutions per day: 14.13636438
mean anomaly at epoch: 195.8256°
orbit number at epoch: 44919

The dashed part of the orbit path shows where the satellite is in the earth's shadow,  

DLR